Log Lane Village, CO

8:38 PM MDT on September 29, 2016 (GMT -0600)
Fort Morgan

Weather History for KFMM - November, 2012

Change the Weather History Date:

Monday, November 19, 2012

  Actual Average (KAKO) Record (KAKO)
Temperature  
Mean Temperature 45 °F 36 °F  
Max Temperature 60 °F 48 °F 75 °F (1996)
Min Temperature 30 °F 24 °F 1 °F (1937)
Degree Days  
Heating Degree Days 20    
Month to date heating degree days  
Cooling Degree Days 0    
Month to date cooling degree days  
Moisture  
Dew Point 29 °F    
Average Humidity 66    
Maximum Humidity 91    
Minimum Humidity 29    
Precipitation  
Precipitation 0.00 in 0.02 in 0.85 in (1953)
Month to date precipitation 0.38  
Year to date precipitation 16.14  
Sea Level Pressure  
Sea Level Pressure 30.19 in    
Wind  
Wind Speed 6 mph ()    
Max Wind Speed 12 mph    
Max Gust Speed -    
Visibility 10.0 miles    
Events      
T = Trace of Precipitation, MM = Missing Value Source: Averaged Metar Reports

Daily Weather History Graph

Daily Weather History Graph

Search for Another Location

Airport or City:

Trip Planner

Search our weather history database for the weather conditions in past years. The results will help you decide how hot, cold, wet, or windy it might be!

Date:

Astronomy

Nov. 19, 2012 Rise Set
Actual Time 6:46 AM MST 4:34 PM MST
Civil Twilight 6:16 AM MST 5:04 PM MST
Nautical Twilight 5:43 AM MST 5:37 PM MST
Astronomical Twilight 5:11 AM MST 6:09 PM MST
Moon 11:50 AM MST (11/19) 11:04 PM MST (11/19)
Length of Visible Light 10h 47m
Length of Day
9h 48m
Waxing Crescent, 41% of the Moon is Illuminated
Nov 19
Waxing Crescent
Nov 20
First Quarter
Nov 28
Full
Dec 6
Last Quarter
Dec 13
New

Hourly Weather History & Observations

Time (MST) Temp. Windchill Dew Point Humidity Pressure Visibility Wind Dir Wind Speed Gust Speed Precip Events Conditions
12:15 AM 32.5 °F 28.1 °F 28.4 °F 85% 30.09 in 10.0 mi West 4.6 mph - N/A   Clear
12:35 AM 35.2 °F 29.5 °F 28.9 °F 78% 30.10 in 10.0 mi West 6.9 mph - N/A   Mostly Cloudy
12:55 AM 35.1 °F 28.6 °F 28.6 °F 77% 30.10 in 10.0 mi West 8.1 mph - N/A   Mostly Cloudy
1:35 AM 34.0 °F 27.2 °F 28.4 °F 80% 30.12 in 10.0 mi West 8.1 mph - N/A   Scattered Clouds
1:55 AM 34.0 °F 26.6 °F 28.2 °F 79% 30.13 in 10.0 mi West 9.2 mph - N/A   Clear
2:15 AM 35.1 °F 27.4 °F 28.0 °F 76% 30.13 in 10.0 mi West 10.4 mph - N/A   Clear
2:35 AM 33.4 °F 25.4 °F 28.0 °F 81% 30.13 in 10.0 mi West 10.4 mph - N/A   Clear
2:55 AM 33.6 °F 26.2 °F 27.9 °F 79% 30.13 in 10.0 mi West 9.2 mph - N/A   Clear
3:15 AM 33.8 °F 27.0 °F 27.5 °F 78% 30.13 in 10.0 mi West 8.1 mph - N/A   Clear
3:35 AM 34.2 °F 30.0 °F 26.8 °F 74% 30.13 in 10.0 mi West 4.6 mph - N/A   Clear
3:55 AM 32.7 °F 25.7 °F 26.2 °F 77% 30.14 in 10.0 mi West 8.1 mph - N/A   Clear
4:15 AM 33.8 °F 25.3 °F 27.1 °F 77% 30.15 in 10.0 mi West 11.5 mph - N/A   Clear
4:35 AM 34.2 °F 26.8 °F 27.0 °F 75% 30.15 in 10.0 mi WNW 9.2 mph - N/A   Clear
4:55 AM 35.6 °F 29.2 °F 27.1 °F 71% 30.16 in 10.0 mi West 8.1 mph - N/A   Clear
5:15 AM 32.2 °F 25.0 °F 26.4 °F 79% 30.15 in 10.0 mi West 8.1 mph - N/A   Clear
5:35 AM 33.1 °F 24.4 °F 26.6 °F 77% 30.16 in 10.0 mi WNW 11.5 mph - N/A   Clear
5:55 AM 33.1 °F 25.5 °F 26.6 °F 77% 30.15 in 10.0 mi West 9.2 mph - N/A   Clear
6:35 AM 32.0 °F 24.8 °F 26.2 °F 79% 30.17 in 10.0 mi West 8.1 mph - N/A   Clear
6:55 AM 30.6 °F 23.1 °F 25.9 °F 83% 30.18 in 10.0 mi WSW 8.1 mph - N/A   Clear
7:15 AM 30.7 °F - 26.2 °F 83% 30.20 in 10.0 mi Calm Calm - N/A   Clear
7:35 AM 33.4 °F 25.4 °F 28.4 °F 82% 30.20 in 10.0 mi WNW 10.4 mph - N/A   Clear
7:55 AM 35.6 °F 30.7 °F 29.1 °F 77% 30.21 in 10.0 mi WSW 5.8 mph - N/A   Clear
8:15 AM 37.6 °F 31.6 °F 28.8 °F 70% 30.21 in 10.0 mi West 8.1 mph - N/A   Clear
8:35 AM 41.7 °F 38.0 °F 29.8 °F 63% 30.21 in 10.0 mi WSW 5.8 mph - N/A   Clear
8:55 AM 41.4 °F 36.8 °F 30.4 °F 65% 30.22 in 10.0 mi WSW 6.9 mph - N/A   Clear
9:15 AM 43.0 °F 38.2 °F 32.0 °F 65% 30.22 in 10.0 mi West 8.1 mph - N/A   Clear
9:35 AM 47.3 °F - 30.2 °F 52% 30.23 in 10.0 mi West 6.9 mph - N/A   Clear
9:55 AM 50.9 °F - 30.6 °F 46% 30.23 in 10.0 mi WSW 6.9 mph - N/A   Clear
10:15 AM 52.2 °F - 30.4 °F 43% 30.24 in 10.0 mi WSW 4.6 mph - N/A   Clear
10:35 AM 55.4 °F - 29.7 °F 37% 30.24 in 10.0 mi WSW 5.8 mph - N/A   Clear
11:15 AM - - - N/A% - - North - - N/A   Unknown
11:35 AM - - - N/A% - - North - - N/A   Unknown
12:15 PM 55.6 °F - 28.9 °F 36% 30.21 in 10.0 mi WSW 4.6 mph - N/A   Clear
12:35 PM 57.2 °F - 27.7 °F 32% 30.20 in 10.0 mi SW 3.5 mph - N/A   Clear
12:55 PM 60.1 °F - 27.7 °F 29% 30.19 in 10.0 mi South 3.5 mph - N/A   Clear
1:15 PM 56.8 °F - 27.5 °F 33% 30.19 in 10.0 mi SSW 4.6 mph - N/A   Clear
1:35 PM 56.1 °F - 28.4 °F 35% 30.19 in 10.0 mi SW 5.8 mph - N/A   Clear
1:55 PM 55.6 °F - 31.6 °F 40% 30.19 in 10.0 mi WSW 5.8 mph - N/A   Clear
2:15 PM 55.8 °F - 30.7 °F 39% 30.19 in 10.0 mi WSW 6.9 mph - N/A   Clear
2:35 PM 55.4 °F - 30.6 °F 39% 30.19 in 10.0 mi SW 5.8 mph - N/A   Clear
2:55 PM 57.2 °F - 29.5 °F 35% 30.18 in 10.0 mi SW 5.8 mph - N/A   Clear
3:15 PM 56.3 °F - 29.5 °F 36% 30.19 in 10.0 mi West 4.6 mph - N/A   Clear
3:35 PM 55.4 °F - 30.6 °F 39% 30.19 in 10.0 mi West 3.5 mph - N/A   Clear
3:55 PM 53.8 °F - 32.0 °F 44% 30.20 in 10.0 mi West 5.8 mph - N/A   Clear
4:15 PM 50.0 °F - 32.0 °F 50% 30.19 in 10.0 mi WNW 5.8 mph - N/A   Clear
4:35 PM 48.6 °F - 32.0 °F 53% 30.20 in 10.0 mi WSW 5.8 mph - N/A   Clear
4:55 PM 41.7 °F 37.3 °F 30.2 °F 64% 30.20 in 10.0 mi WNW 6.9 mph - N/A   Clear
5:15 PM 40.8 °F 38.8 °F 30.0 °F 65% 30.20 in 10.0 mi WNW 3.5 mph - N/A   Clear
5:35 PM 40.5 °F 35.8 °F 29.8 °F 66% 30.21 in 10.0 mi WNW 6.9 mph - N/A   Clear
5:55 PM 42.6 °F 39.0 °F 30.0 °F 61% 30.22 in 10.0 mi NW 5.8 mph - N/A   Clear
6:15 PM 37.2 °F - 29.5 °F 74% 30.22 in 10.0 mi Calm Calm - N/A   Clear
6:35 PM 41.9 °F - 30.9 °F 65% 30.21 in 10.0 mi Calm Calm - N/A   Clear
6:55 PM 41.4 °F - 29.7 °F 63% 30.22 in 10.0 mi Calm Calm - N/A   Clear
7:15 PM 37.8 °F - 30.2 °F 74% 30.22 in 10.0 mi Calm Calm - N/A   Clear
7:35 PM 39.4 °F - 30.6 °F 71% 30.22 in 10.0 mi Calm Calm - N/A   Clear
8:15 PM 36.5 °F 31.8 °F 29.3 °F 75% 30.22 in 10.0 mi West 5.8 mph - N/A   Clear
8:35 PM 38.1 °F 32.3 °F 30.9 °F 75% 30.22 in 10.0 mi WSW 8.1 mph - N/A   Clear
8:55 PM 34.7 °F 29.6 °F 31.1 °F 87% 30.23 in 10.0 mi West 5.8 mph - N/A   Clear
9:15 PM 32.4 °F 27.9 °F 30.0 °F 91% 30.24 in 10.0 mi West 4.6 mph - N/A   Clear
9:35 PM 32.4 °F 26.0 °F 28.4 °F 85% 30.23 in 10.0 mi WNW 6.9 mph - N/A   Clear
9:55 PM 34.0 °F 28.8 °F 28.6 °F 81% 30.22 in 10.0 mi West 5.8 mph - N/A   Clear
10:15 PM 34.9 °F 29.0 °F 29.3 °F 80% 30.22 in 10.0 mi West 6.9 mph - N/A   Clear
10:35 PM 33.3 °F 25.1 °F 28.8 °F 84% 30.22 in 10.0 mi West 10.4 mph - N/A   Clear
10:55 PM 32.0 °F 24.2 °F 27.3 °F 83% 30.22 in 10.0 mi West 9.2 mph - N/A   Clear
11:15 PM 33.1 °F 25.5 °F 27.7 °F 81% 30.22 in 10.0 mi West 9.2 mph - N/A   Clear
11:35 PM 34.0 °F 26.6 °F 27.9 °F 78% 30.23 in 10.0 mi West 9.2 mph - N/A   Clear
11:55 PM 34.2 °F 28.2 °F 28.0 °F 78% 30.23 in 10.0 mi West 6.9 mph - N/A   Clear